• MPC Preparation (Info)

  • MPEC 2014-A79 : 2014 AJ51

    The following Minor Planet Electronic Circular may be linked-to from your own Web pages, but must not otherwise be redistributed electronically.

    A form allowing access to any MPEC is at the bottom of this page.


    Read MPEC 2014-A78 Read MPEC 2014-A80


    M.P.E.C. 2014-A79                                Issued 2014 Jan. 13, 20:46 UT
    
         The Minor Planet Electronic Circulars contain information on unusual
             minor planets and routine data on comets.  They are published
       on behalf of Commission 20 of the International Astronomical Union by the
              Minor Planet Center, Smithsonian Astrophysical Observatory,
                              Cambridge, MA 02138, U.S.A.
    
                 Prepared using the Tamkin Foundation Computer Network
    
                                  MPC@CFA.HARVARD.EDU
                URL https://www.minorplanetcenter.net/    ISSN 1523-6714
    
                                       2014 AJ51
    
    Observations:
         K14A51J* C2014 01 10.45876 11 26 53.24 +03 01 30.6          20.8 VqEA079G96
         K14A51J  C2014 01 10.46350 11 26 56.98 +03 02 34.1          20.0 VqEA079G96
         K14A51J  C2014 01 10.46824 11 27 00.61 +03 03 36.0          19.6 VqEA079G96
         K14A51J  C2014 01 10.47299 11 27 04.32 +03 04 39.2          20.2 VqEA079G96
         K14A51J  C2014 01 10.52023 11 27 40.74 +03 15 02.4          20.5 VqEA079G96
         K14A51J  C2014 01 10.52051 11 27 41.02 +03 15 05.4          20.3 VqEA079G96
         K14A51J  C2014 01 10.52079 11 27 41.22 +03 15 09.4          20.9 VqEA079G96
         K14A51J  C2014 01 10.52107 11 27 41.48 +03 15 12.6          20.9 VqEA079G96
         K14A51J  C2014 01 11.47885 11 40 36.87 +06 42 56.2          20.1 VqEA079G96
         K14A51J  C2014 01 11.47937 11 40 37.25 +06 43 03.1          19.9 VqEA079G96
         K14A51J  C2014 01 11.47988 11 40 37.60 +06 43 08.7          20.5 VqEA079G96
         K14A51J  C2014 01 11.48039 11 40 38.05 +06 43 16.0          20.6 VqEA079G96
         K14A51J KC2014 01 11.49198 11 40 45.19 +06 45 32.2          20.0 RqEA079H36
         K14A51J KC2014 01 11.50190 11 40 52.71 +06 47 39.0          20.0 RqEA079H36
         K14A51J KC2014 01 11.52049 11 41 06.91 +06 51 36.3          20.2 RqEA079H36
         K14A51J KC2014 01 12.15445 11 49 31.78 +09 04 38.2          20.1 VuEA079958
         K14A51J KC2014 01 12.16128 11 49 36.78 +09 06 03.3          19.9 VuEA079958
         K14A51J MC2014 01 12.16810 11 49 41.84 +09 07 25.8          20.6 VuEA079958
         K14A51J  C2014 01 12.45866 11 53 28.92 +10 07 28.3          20.7 RoEA079926
         K14A51J  C2014 01 12.46147 11 53 30.99 +10 08 02.9          20.5 RoEA079926
         K14A51J  C2014 01 12.46427 11 53 33.03 +10 08 37.1          20.6 RoEA079926
    
    Observer details:
    926 Tenagra II Observatory.  Observers M. Schwartz, P. R. Holvorcem.  0.81-m
        f/7 Ritchey-Chretien + CCD.
    958 Observatoire de Dax.  Observers P. Dupouy, J. B. de Vanssay.  Measurer
        P. Dupouy.  0.43-m f/2.7 reflector + CCD.
    G96 Mt. Lemmon Survey.  Observers A. D. Grauer, J. A. Johnson.  Measurers
        A. Boattini, E. J. Christensen, A. R. Gibbs, A. D. Grauer, R. E. Hill,
        J. A. Johnson, R. A. Kowalski, S. M. Larson, F. C. Shelly.  1.5-m
        reflector + CCD.
    H36 Sandlot Observatory, Scranton.  Observer G. Hug.  0.56-m reflector + CCD.
    
    Orbital elements:
    2014 AJ51                                                Earth MOID = 0.0354 AU
    Epoch 2013 Nov. 4.0 TT = JDT 2456600.5                  MPC
    M 328.50246              (2000.0)            P               Q
    n   0.45214895     Peri.    2.36003     -0.43556247     -0.85980051
    a   1.6811832      Node   113.56490     +0.82104362     -0.50084237
    e   0.3936859      Incl.   16.90338     +0.36901586     +0.09949871
    P   2.18           H   24.0           G   0.15           U   6
    Residuals in seconds of arc
    140110 G96  0.4-  0.2-    140110 G96  0.3+  0.5-    140111 H36  1.1+  0.5+
    140110 G96  0.7+  0.6+    140111 G96  0.1-  0.0     140112 958  1.2+  0.2-
    140110 G96  0.1+  0.1-    140111 G96  0.3-  0.2+    140112 958  0.2-  0.0
    140110 G96  0.6+  0.4+    140111 G96  0.8-  0.7-    140112 958  0.6-  2.2-
    140110 G96  1.1-  0.3+    140111 G96  0.1+  0.1+    140112 926  0.3-  0.5+
    140110 G96  0.1-  0.4-    140111 H36  0.6+  0.2+    140112 926  0.1-  0.7+
    140110 G96  0.4-  0.0     140111 H36  0.3+  0.3+    140112 926  0.3-  0.6+
    
    Ephemeris:
    2014 AJ51                a,e,i = 1.68, 0.39, 17                  q = 1.0193
    Date    TT    R. A. (2000) Decl.     Delta      r     Elong.  Phase     V
    2013 12 14    07 01 53.9 -39 38 26   0.1769  1.0666   113.2    58.0    22.5
    ...
    2013 12 29    08 46 12.4 -31 41 15   0.09921 1.0312   116.3    58.7    21.2
    ...
    2014 01 06    10 24 54.6 -13 03 31   0.07334 1.0218   119.8    56.6    20.4
    ...
    2014 01 12    11 47 28.8 +08 33 33   0.07300 1.0193   117.6    58.8    20.5
    2014 01 13    12 00 22.6 +11 56 29   0.07479 1.0193   116.7    59.5    20.5
    2014 01 14    12 12 49.1 +15 07 06   0.07703 1.0194   115.8    60.3    20.6
    ...
    2014 01 20    13 16 08.7 +29 19 09   0.09772 1.0223   110.5    64.4    21.3
    ...
    2014 01 28    14 11 41.5 +38 45 48   0.1353  1.0323   106.9    65.9    22.1
    ...
    2014 02 12    15 00 00.3 +45 47 11   0.2119  1.0685   107.0    62.0    23.0
    
    2014 AJ51                a,e,i = 1.68, 0.39, 17                  q = 1.0193
    Date    TT    R. A. (2000) Decl.     Delta      r     Elong.  Phase     V
    2013 12 14    07 01 53.9 -39 38 26   0.1769  1.0666   113.2    58.0    22.5
    ...
    2013 12 29    08 46 12.4 -31 41 15   0.09921 1.0312   116.3    58.7    21.2
    ...
    2014 01 06    10 24 54.6 -13 03 31   0.07334 1.0218   119.8    56.6    20.4
    ...
    2014 01 12    11 47 28.8 +08 33 33   0.07300 1.0193   117.6    58.8    20.5
    2014 01 13    12 00 22.6 +11 56 29   0.07479 1.0193   116.7    59.5    20.5
    2014 01 14    12 12 49.1 +15 07 06   0.07703 1.0194   115.8    60.3    20.6
    ...
    2014 01 20    13 16 08.7 +29 19 09   0.09772 1.0223   110.5    64.4    21.3
    ...
    2014 01 28    14 11 41.5 +38 45 48   0.1353  1.0323   106.9    65.9    22.1
    ...
    2014 02 12    15 00 00.3 +45 47 11   0.2119  1.0685   107.0    62.0    23.0
    
    A. U. Tomatic                (C) Copyright 2014 MPC           M.P.E.C. 2014-A79
    

    Read MPEC 2014-A78 Read MPEC 2014-A80


    MPEC number:

    Enter an MPEC number in one of the following forms:

    • 1997-B01 (the full form)
    • J97B01 (the packed version of the full form)
    • B01 (the abbreviated form)